QPF
0.05 0.05 0.05 0.05 0.05 0.06 0.06 0.06 0.05 0.04 0.03 0.01 0.01 0.01 0.01 0.01 0.01 0.01 0.00 0.01 0.01 0.01 0.01 0.01 0.02 0.02 0.03 0.06 0.08 0.08 0.07 0.07 0.07 0.06 0.06 0.06 0.06 0.05
0.06 0.05 0.04 0.04 0.05 0.06 0.06 0.06 0.06 0.06 0.04 0.02 0.01 0.01 0.01 0.01 0.01 0.01 0.01 0.00 0.01 0.01 0.00 0.00 0.01 0.01 0.02 0.04 0.06 0.07 0.08 0.07 0.05 0.05 0.05 0.05 0.05 0.05
0.05 0.04 0.03 0.02 0.03 0.04 0.06 0.07 0.07 0.07 0.06 0.04 0.02 0.01 0.01 0.01 0.01 0.01 0.01 0.01 0.01 0.01 0.01 0.01 0.00 0.01 0.01 0.03 0.05 0.05 0.06 0.06 0.05 0.05 0.05 0.05 0.05 0.04
0.05 0.04 0.03 0.02 0.02 0.03 0.05 0.06 0.06 0.06 0.06 0.05 0.04 0.02 0.01 0.01 0.01 0.01 0.01 0.01 0.01 0.01 0.01 0.01 0.01 0.01 0.02 0.04 0.05 0.04 0.04 0.04 0.04 0.05 0.05 0.05 0.04 0.04
0.05 0.05 0.04 0.03 0.03 0.03 0.04 0.05 0.06 0.06 0.06 0.05 0.04 0.03 0.02 0.01 0.01 0.01 0.01 0.01 0.01 0.02 0.02 0.01 0.01 0.01 0.01 0.02 0.06 0.05 0.03 0.03 0.03 0.03 0.03 0.04 0.04 0.04
0.07 0.06 0.06 0.04 0.03 0.03 0.03 0.04 0.04 0.05 0.06 0.06 0.05 0.04 0.03 0.02 0.02 0.02 0.02 0.01 0.01 0.01 0.02 0.02 0.02 0.02 0.01 0.01 0.04 0.06 0.04 0.02 0.02 0.03 0.03 0.03 0.03 0.03
0.08 0.07 0.07 0.06 0.05 0.04 0.04 0.04 0.03 0.04 0.04 0.05 0.06 0.05 0.04 0.03 0.02 0.02 0.01 0.01 0.02 0.02 0.02 0.02 0.02 0.03 0.03 0.02 0.02 0.05 0.06 0.04 0.03 0.02 0.03 0.03 0.03 0.03
0.07 0.06 0.06 0.06 0.05 0.04 0.04 0.04 0.04 0.03 0.03 0.04 0.04 0.04 0.04 0.03 0.03 0.03 0.02 0.02 0.02 0.02 0.02 0.02 0.02 0.03 0.03 0.03 0.03 0.04 0.05 0.04 0.03 0.02 0.02 0.02 0.02 0.02
0.05 0.05 0.05 0.05 0.04 0.04 0.04 0.04 0.03 0.03 0.03 0.03 0.03 0.03 0.04 0.03 0.03 0.03 0.03 0.02 0.02 0.01 0.02 0.03 0.03 0.03 0.03 0.03 0.04 0.04 0.03 0.03 0.02 0.01 0.01 0.01 0.02 0.02
0.04 0.04 0.04 0.04 0.03 0.02 0.03 0.02 0.02 0.02 0.02 0.02 0.02 0.03 0.03 0.04 0.04 0.04 0.03 0.03 0.02 0.01 0.02 0.02 0.03 0.03 0.02 0.03 0.04 0.03 0.03 0.02 0.01 0.01 0.01 0.01 0.01 0.01
0.03 0.03 0.03 0.03 0.03 0.03 0.02 0.02 0.02 0.01 0.02 0.02 0.03 0.03 0.03 0.04 0.05 0.05 0.04 0.03 0.03 0.03 0.02 0.02 0.03 0.04 0.03 0.02 0.03 0.03 0.02 0.02 0.01 0.01 0.01 0.01 0.01 0.01
0.03 0.03 0.03 0.03 0.03 0.02 0.02 0.02 0.02 0.01 0.01 0.01 0.02 0.03 0.03 0.03 0.04 0.06 0.07 0.06 0.04 0.04 0.02 0.02 0.02 0.03 0.03 0.02 0.02 0.02 0.02 0.02 0.02 0.01 0.01 0.01 0.01 0.01
0.03 0.02 0.02 0.02 0.02 0.02 0.02 0.01 0.01 0.02 0.01 0.01 0.01 0.02 0.02 0.03 0.04 0.05 0.05 0.07 0.08 0.05 0.02 0.02 0.03 0.02 0.02 0.02 0.02 0.02 0.01 0.02 0.01 0.01 0.01 0.01 0.02 0.02
0.03 0.02 0.02 0.02 0.03 0.02 0.02 0.01 0.01 0.02 0.01 0.01 0.01 0.02 0.02 0.02 0.03 0.03 0.03 0.04 0.06 0.07 0.04 0.03 0.03 0.02 0.02 0.02 0.01 0.01 0.01 0.01 0.01 0.01 0.01 0.02 0.02 0.02
0.02 0.02 0.02 0.02 0.02 0.02 0.02 0.02 0.01 0.01 0.01 0.01 0.01 0.02 0.02 0.03 0.03 0.03 0.02 0.02 0.03 0.04 0.04 0.04 0.03 0.03 0.03 0.03 0.02 0.02 0.02 0.01 0.01 0.02 0.02 0.02 0.02 0.02
0.02 0.02 0.02 0.02 0.01 0.01 0.02 0.02 0.02 0.01 0.01 0.01 0.01 0.02 0.02 0.02 0.03 0.02 0.02 0.02 0.03 0.03 0.03 0.03 0.04 0.04 0.04 0.03 0.03 0.03 0.02 0.02 0.02 0.02 0.03 0.03 0.03 0.03
0.01 0.02 0.02 0.02 0.02 0.02 0.02 0.02 0.02 0.01 0.02 0.02 0.02 0.02 0.02 0.02 0.02 0.02 0.02 0.03 0.03 0.03 0.03 0.03 0.03 0.03 0.04 0.03 0.03 0.03 0.02 0.02 0.03 0.03 0.04 0.04 0.04 0.03
0.02 0.01 0.02 0.02 0.02 0.02 0.02 0.02 0.02 0.01 0.01 0.02 0.02 0.02 0.02 0.02 0.02 0.02 0.03 0.04 0.04 0.03 0.03 0.03 0.03 0.03 0.04 0.03 0.03 0.02 0.02 0.02 0.02 0.02 0.03 0.02 0.02 0.02
0.03 0.02 0.02 0.02 0.01 0.01 0.01 0.01 0.01 0.01 0.01 0.01 0.01 0.02 0.01 0.01 0.01 0.02 0.02 0.03 0.04 0.05 0.04 0.04 0.03 0.04 0.04 0.03 0.02 0.02 0.02 0.03 0.02 0.02 0.01 0.01 0.01 0.01
0.02 0.02 0.02 0.02 0.01 0.01 0.01 0.01 0.01 0.01 0.01 0.01 0.01 0.01 0.01 0.01 0.01 0.02 0.02 0.03 0.03 0.04 0.04 0.05 0.05 0.04 0.04 0.03 0.02 0.02 0.02 0.03 0.03 0.02 0.02 0.01 0.01 0.00
0.02 0.02 0.02 0.02 0.01 0.01 0.01 0.01 0.02 0.02 0.02 0.01 0.01 0.01 0.01 0.01 0.01 0.02 0.02 0.02 0.03 0.03 0.03 0.03 0.03 0.04 0.04 0.04 0.04 0.03 0.02 0.02 0.02 0.02 0.02 0.01 0.01 0.01
0.02 0.02 0.02 0.02 0.02 0.01 0.01 0.02 0.02 0.02 0.02 0.01 0.01 0.01 0.01 0.01 0.02 0.01 0.01 0.02 0.02 0.02 0.02 0.03 0.03 0.03 0.04 0.04 0.04 0.03 0.02 0.02 0.02 0.02 0.02 0.02 0.02 0.01
0.02 0.02 0.02 0.02 0.02 0.02 0.02 0.02 0.02 0.02 0.02 0.01 0.01 0.01 0.01 0.01 0.01 0.01 0.01 0.01 0.01 0.01 0.02 0.02 0.03 0.03 0.03 0.03 0.03 0.03 0.03 0.03 0.02 0.02 0.02 0.02 0.01 0.01
MSLP
1015.20 1015.90 1016.59 1017.28 1017.99 1018.71 1019.47 1020.25 1021.06 1021.86 1022.64 1023.36 1023.99 1024.51 1024.89 1025.15 1025.29 1025.34 1025.34 1025.32 1025.31 1025.35 1025.44 1025.58 1025.74 1025.92 1026.08 1026.19 1026.23 1026.20 1026.07 1025.87 1025.60 1025.27 1024.90 1024.49 1024.05 1023.60
1015.18 1015.84 1016.49 1017.14 1017.80 1018.49 1019.22 1020.00 1020.81 1021.64 1022.47 1023.25 1023.96 1024.55 1025.01 1025.34 1025.53 1025.62 1025.65 1025.64 1025.64 1025.67 1025.75 1025.87 1026.04 1026.21 1026.37 1026.48 1026.53 1026.50 1026.38 1026.19 1025.93 1025.61 1025.24 1024.84 1024.41 1023.94
1015.23 1015.87 1016.49 1017.11 1017.74 1018.39 1019.09 1019.84 1020.64 1021.48 1022.33 1023.15 1023.91 1024.57 1025.09 1025.48 1025.74 1025.88 1025.93 1025.94 1025.95 1025.98 1026.04 1026.15 1026.29 1026.44 1026.57 1026.67 1026.71 1026.67 1026.57 1026.39 1026.16 1025.87 1025.54 1025.18 1024.77 1024.33
1015.34 1015.97 1016.57 1017.17 1017.76 1018.38 1019.04 1019.76 1020.53 1021.36 1022.21 1023.05 1023.84 1024.54 1025.12 1025.57 1025.88 1026.07 1026.18 1026.22 1026.24 1026.27 1026.32 1026.40 1026.50 1026.62 1026.72 1026.78 1026.79 1026.75 1026.65 1026.49 1026.29 1026.06 1025.78 1025.48 1025.13 1024.74
1015.50 1016.12 1016.71 1017.29 1017.86 1018.44 1019.06 1019.73 1020.47 1021.26 1022.09 1022.92 1023.72 1024.45 1025.07 1025.57 1025.94 1026.19 1026.34 1026.43 1026.48 1026.52 1026.57 1026.62 1026.69 1026.76 1026.81 1026.83 1026.81 1026.75 1026.65 1026.51 1026.35 1026.16 1025.96 1025.73 1025.46 1025.14
1015.67 1016.29 1016.88 1017.44 1017.99 1018.54 1019.12 1019.74 1020.43 1021.17 1021.96 1022.76 1023.55 1024.28 1024.93 1025.47 1025.90 1026.21 1026.42 1026.56 1026.65 1026.72 1026.77 1026.81 1026.85 1026.87 1026.87 1026.85 1026.79 1026.70 1026.59 1026.47 1026.34 1026.21 1026.07 1025.91 1025.72 1025.47
1015.87 1016.48 1017.06 1017.61 1018.13 1018.65 1019.19 1019.77 1020.40 1021.09 1021.82 1022.58 1023.34 1024.06 1024.71 1025.28 1025.75 1026.12 1026.40 1026.60 1026.74 1026.85 1026.91 1026.96 1026.97 1026.96 1026.92 1026.85 1026.75 1026.63 1026.51 1026.39 1026.29 1026.19 1026.10 1026.01 1025.88 1025.71
1016.06 1016.66 1017.23 1017.76 1018.27 1018.76 1019.27 1019.81 1020.39 1021.02 1021.69 1022.40 1023.11 1023.80 1024.45 1025.02 1025.53 1025.94 1026.28 1026.55 1026.75 1026.90 1026.99 1027.05 1027.06 1027.03 1026.95 1026.84 1026.71 1026.56 1026.42 1026.30 1026.20 1026.13 1026.08 1026.02 1025.94 1025.82
1016.24 1016.82 1017.38 1017.90 1018.39 1018.87 1019.35 1019.86 1020.39 1020.97 1021.59 1022.24 1022.90 1023.55 1024.17 1024.75 1025.26 1025.72 1026.10 1026.42 1026.68 1026.87 1027.01 1027.09 1027.10 1027.06 1026.97 1026.84 1026.68 1026.51 1026.35 1026.21 1026.11 1026.04 1025.99 1025.95 1025.89 1025.78
1016.38 1016.95 1017.49 1018.00 1018.50 1018.97 1019.44 1019.93 1020.44 1020.97 1021.54 1022.13 1022.74 1023.34 1023.93 1024.49 1025.01 1025.48 1025.89 1026.25 1026.55 1026.79 1026.96 1027.06 1027.10 1027.07 1026.97 1026.83 1026.65 1026.47 1026.29 1026.14 1026.01 1025.93 1025.86 1025.81 1025.74 1025.62
1016.51 1017.05 1017.58 1018.09 1018.59 1019.07 1019.55 1020.03 1020.52 1021.03 1021.56 1022.11 1022.66 1023.22 1023.77 1024.29 1024.79 1025.25 1025.68 1026.06 1026.38 1026.65 1026.86 1026.99 1027.05 1027.03 1026.95 1026.81 1026.63 1026.44 1026.24 1026.07 1025.93 1025.81 1025.72 1025.63 1025.52 1025.38
1016.62 1017.14 1017.66 1018.18 1018.68 1019.18 1019.67 1020.16 1020.65 1021.14 1021.65 1022.16 1022.67 1023.18 1023.67 1024.16 1024.63 1025.07 1025.48 1025.86 1026.20 1026.49 1026.71 1026.87 1026.95 1026.95 1026.89 1026.77 1026.60 1026.40 1026.21 1026.02 1025.85 1025.71 1025.57 1025.44 1025.29 1025.11
1016.76 1017.25 1017.76 1018.28 1018.80 1019.31 1019.81 1020.31 1020.80 1021.29 1021.78 1022.26 1022.73 1023.19 1023.65 1024.09 1024.52 1024.93 1025.32 1025.68 1026.01 1026.30 1026.53 1026.70 1026.80 1026.83 1026.79 1026.68 1026.53 1026.35 1026.16 1025.97 1025.78 1025.61 1025.44 1025.27 1025.07 1024.85
1016.94 1017.41 1017.91 1018.42 1018.94 1019.46 1019.97 1020.47 1020.96 1021.45 1021.91 1022.37 1022.81 1023.24 1023.65 1024.05 1024.44 1024.81 1025.17 1025.50 1025.82 1026.09 1026.32 1026.49 1026.60 1026.65 1026.63 1026.55 1026.42 1026.26 1026.08 1025.89 1025.70 1025.50 1025.31 1025.10 1024.88 1024.62
1017.19 1017.63 1018.11 1018.60 1019.11 1019.62 1020.12 1020.62 1021.10 1021.57 1022.02 1022.45 1022.87 1023.27 1023.65 1024.01 1024.36 1024.70 1025.02 1025.33 1025.61 1025.87 1026.08 1026.25 1026.36 1026.42 1026.41 1026.36 1026.25 1026.11 1025.94 1025.76 1025.57 1025.37 1025.16 1024.94 1024.69 1024.41
1017.48 1017.90 1018.34 1018.81 1019.29 1019.78 1020.25 1020.72 1021.18 1021.63 1022.06 1022.47 1022.87 1023.24 1023.60 1023.94 1024.27 1024.58 1024.87 1025.14 1025.40 1025.62 1025.82 1025.97 1026.07 1026.13 1026.13 1026.09 1025.99 1025.87 1025.72 1025.55 1025.36 1025.17 1024.96 1024.73 1024.48 1024.19
1017.79 1018.17 1018.58 1019.01 1019.45 1019.89 1020.33 1020.76 1021.19 1021.60 1022.01 1022.40 1022.78 1023.14 1023.49 1023.82 1024.12 1024.41 1024.68 1024.93 1025.16 1025.35 1025.52 1025.65 1025.74 1025.78 1025.78 1025.74 1025.65 1025.54 1025.40 1025.23 1025.06 1024.87 1024.66 1024.44 1024.20 1023.92
1018.04 1018.39 1018.77 1019.15 1019.54 1019.93 1020.32 1020.70 1021.09 1021.47 1021.85 1022.22 1022.59 1022.94 1023.29 1023.61 1023.91 1024.19 1024.45 1024.68 1024.88 1025.05 1025.19 1025.29 1025.36 1025.38 1025.37 1025.31 1025.22 1025.10 1024.96 1024.81 1024.63 1024.45 1024.25 1024.04 1023.81 1023.56
1018.18 1018.51 1018.85 1019.19 1019.53 1019.87 1020.20 1020.54 1020.88 1021.23 1021.58 1021.94 1022.30 1022.66 1023.00 1023.33 1023.63 1023.91 1024.16 1024.38 1024.56 1024.70 1024.82 1024.89 1024.93 1024.93 1024.89 1024.82 1024.72 1024.59 1024.44 1024.27 1024.10 1023.92 1023.72 1023.52 1023.31 1023.08
1018.16 1018.47 1018.78 1019.08 1019.38 1019.68 1019.97 1020.26 1020.57 1020.89 1021.22 1021.57 1021.92 1022.28 1022.63 1022.96 1023.27 1023.55 1023.79 1024.00 1024.17 1024.30 1024.39 1024.44 1024.45 1024.43 1024.37 1024.27 1024.15 1024.01 1023.85 1023.67 1023.49 1023.30 1023.11 1022.92 1022.72 1022.51
1017.97 1018.26 1018.55 1018.83 1019.10 1019.36 1019.61 1019.88 1020.16 1020.45 1020.77 1021.11 1021.46 1021.82 1022.17 1022.50 1022.82 1023.10 1023.34 1023.54 1023.70 1023.82 1023.90 1023.93 1023.92 1023.88 1023.81 1023.70 1023.56 1023.40 1023.22 1023.04 1022.84 1022.65 1022.46 1022.27 1022.08 1021.90
1017.62 1017.90 1018.18 1018.44 1018.68 1018.92 1019.15 1019.40 1019.66 1019.94 1020.24 1020.57 1020.92 1021.27 1021.62 1021.96 1022.27 1022.55 1022.79 1022.99 1023.15 1023.26 1023.33 1023.36 1023.35 1023.30 1023.22 1023.10 1022.96 1022.80 1022.62 1022.42 1022.22 1022.02 1021.83 1021.65 1021.47 1021.30
1017.16 1017.43 1017.69 1017.93 1018.16 1018.38 1018.60 1018.83 1019.08 1019.34 1019.64 1019.96 1020.30 1020.64 1020.99 1021.32 1021.63 1021.91 1022.15 1022.35 1022.51 1022.62 1022.70 1022.73 1022.73 1022.70 1022.62 1022.52 1022.39 1022.23 1022.06 1021.86 1021.67 1021.48 1021.29 1021.11 1020.94 1020.79
Thickness
5520 5520 5520 5521 5521 5522 5522 5522 5519 5518 5520 5520 5519 5519 5518 5516 5514 5512 5510 5509 5508 5507 5506 5505 5504 5503 5503 5502 5502 5502 5501 5501 5501 5501 5501 5501 5500 5500
5510 5511 5512 5512 5513 5513 5513 5513 5513 5511 5509 5510 5510 5510 5508 5507 5505 5503 5501 5500 5499 5498 5497 5496 5495 5494 5493 5493 5493 5493 5492 5492 5491 5491 5490 5490 5490 5490
5501 5502 5503 5504 5504 5504 5503 5503 5504 5502 5499 5500 5500 5500 5498 5496 5495 5493 5492 5491 5490 5489 5487 5487 5486 5485 5485 5484 5484 5484 5483 5482 5482 5481 5480 5480 5480 5480
5493 5494 5494 5494 5494 5495 5495 5495 5494 5493 5491 5490 5490 5489 5487 5486 5485 5483 5482 5481 5480 5479 5478 5478 5477 5477 5476 5476 5475 5475 5474 5473 5472 5472 5471 5471 5470 5469
5484 5485 5486 5486 5486 5486 5486 5486 5485 5484 5483 5481 5480 5478 5477 5476 5474 5473 5472 5471 5471 5470 5469 5469 5468 5468 5468 5467 5466 5466 5465 5464 5464 5463 5462 5461 5460 5460
5475 5476 5477 5478 5478 5478 5477 5476 5475 5474 5473 5471 5470 5468 5467 5465 5463 5462 5462 5461 5461 5461 5460 5460 5460 5459 5459 5459 5458 5457 5456 5455 5455 5454 5453 5452 5451 5451
5466 5466 5467 5468 5469 5469 5468 5467 5465 5464 5463 5461 5460 5458 5457 5455 5454 5452 5452 5452 5452 5452 5451 5451 5451 5451 5451 5450 5449 5448 5448 5447 5446 5446 5445 5444 5443 5443
5456 5457 5458 5458 5459 5459 5459 5458 5457 5456 5455 5453 5451 5449 5448 5446 5445 5444 5443 5442 5443 5444 5442 5443 5442 5442 5442 5442 5442 5441 5440 5439 5438 5437 5436 5436 5435 5435
5446 5448 5449 5450 5450 5450 5449 5448 5447 5447 5447 5446 5443 5441 5439 5438 5437 5435 5434 5434 5434 5435 5433 5433 5433 5433 5434 5434 5434 5433 5432 5431 5430 5429 5428 5427 5427 5426
5437 5438 5439 5440 5441 5441 5440 5439 5438 5437 5437 5436 5435 5433 5431 5430 5429 5428 5427 5425 5426 5425 5424 5423 5424 5424 5425 5426 5425 5425 5424 5423 5421 5421 5420 5420 5419 5419
5427 5429 5430 5431 5432 5433 5432 5430 5429 5428 5427 5426 5426 5424 5423 5422 5421 5419 5417 5417 5417 5417 5415 5414 5415 5414 5416 5417 5417 5416 5415 5415 5414 5413 5412 5412 5411 5411
5419 5420 5421 5422 5423 5423 5422 5421 5420 5419 5418 5417 5416 5415 5413 5412 5412 5410 5409 5408 5408 5408 5408 5406 5406 5404 5406 5408 5408 5407 5406 5406 5406 5405 5404 5404 5403 5403
5409 5410 5412 5413 5413 5413 5412 5412 5411 5410 5409 5408 5406 5405 5404 5403 5403 5402 5401 5401 5400 5400 5401 5398 5397 5395 5395 5397 5399 5399 5399 5398 5397 5397 5396 5396 5396 5396
5400 5401 5402 5403 5403 5402 5402 5402 5401 5400 5398 5397 5396 5395 5395 5394 5394 5394 5394 5393 5393 5393 5393 5392 5390 5388 5387 5388 5390 5391 5390 5390 5390 5390 5389 5389 5388 5387
5391 5393 5393 5393 5393 5392 5391 5391 5390 5389 5388 5386 5385 5385 5385 5385 5385 5385 5385 5385 5385 5385 5385 5384 5383 5383 5381 5381 5382 5382 5382 5382 5382 5382 5382 5381 5381 5380
5381 5382 5383 5382 5381 5381 5380 5379 5378 5378 5378 5377 5376 5375 5375 5375 5375 5375 5376 5376 5376 5376 5376 5376 5376 5376 5375 5375 5374 5374 5373 5373 5374 5375 5375 5375 5374 5374
5373 5372 5371 5371 5370 5370 5369 5368 5368 5367 5367 5366 5366 5366 5366 5365 5365 5366 5365 5365 5366 5367 5367 5368 5368 5368 5368 5367 5366 5366 5366 5366 5367 5367 5367 5368 5369 5369
5364 5364 5363 5362 5361 5361 5360 5359 5358 5358 5358 5357 5357 5356 5356 5356 5356 5356 5356 5356 5357 5357 5358 5358 5359 5360 5360 5360 5360 5360 5359 5359 5360 5360 5360 5361 5363 5363
5355 5355 5354 5354 5353 5352 5351 5350 5350 5349 5348 5347 5347 5347 5347 5347 5347 5347 5347 5347 5348 5349 5349 5349 5350 5351 5352 5353 5354 5353 5352 5353 5352 5353 5353 5354 5355 5357
5347 5347 5346 5346 5345 5343 5342 5342 5341 5340 5339 5339 5339 5339 5339 5339 5339 5339 5339 5340 5340 5340 5341 5341 5341 5342 5343 5344 5344 5345 5346 5346 5346 5346 5347 5347 5348 5350
5339 5339 5339 5338 5337 5336 5335 5334 5333 5332 5332 5332 5332 5331 5331 5331 5331 5332 5332 5333 5333 5333 5334 5335 5335 5334 5334 5335 5336 5338 5339 5340 5340 5340 5341 5341 5342 5343
5331 5331 5331 5330 5329 5328 5327 5326 5325 5325 5325 5324 5324 5324 5323 5323 5324 5324 5325 5325 5325 5326 5327 5327 5327 5327 5327 5328 5330 5330 5331 5333 5334 5335 5335 5336 5335 5336
5323 5323 5323 5323 5322 5321 5320 5319 5318 5318 5318 5318 5317 5316 5316 5316 5316 5317 5317 5318 5318 5319 5320 5320 5319 5320 5320 5321 5322 5323 5324 5325 5327 5328 5329 5330 5331 5331